TimePDT,TemperatureF,Dew PointF,Humidity,Sea Level PressureIn,VisibilityMPH,Wind Direction,Wind SpeedMPH,Gust SpeedMPH,PrecipitationIn,Events,Conditions,WindDirDegrees,DateUTC
12:53 AM,44.1,34.0,68,29.90,10.0,WSW,3.5,-,N/A,,Clear,250,2012-10-11 07:53:00
1:53 AM,42.1,33.1,70,29.91,10.0,West,6.9,-,N/A,,Clear,260,2012-10-11 08:53:00
2:53 AM,45.0,34.0,65,29.92,10.0,West,6.9,-,N/A,,Clear,260,2012-10-11 09:53:00
3:53 AM,42.1,34.0,73,29.93,10.0,West,9.2,64.4,N/A,,Clear,260,2012-10-11 10:53:00
4:53 AM,39.9,33.1,77,29.94,10.0,West,9.2,-,N/A,,Clear,270,2012-10-11 11:53:00
5:53 AM,39.9,33.1,77,29.95,10.0,West,10.4,20.7,N/A,,Clear,280,2012-10-11 12:53:00
6:53 AM,36.0,30.9,82,29.97,10.0,West,6.9,-,N/A,,Clear,280,2012-10-11 13:53:00
7:53 AM,37.9,32.0,79,29.99,10.0,West,5.8,-,N/A,,Clear,280,2012-10-11 14:53:00
8:53 AM,48.9,36.0,61,29.99,10.0,WNW,5.8,-,N/A,,Clear,290,2012-10-11 15:53:00
9:53 AM,55.9,36.0,47,29.98,10.0,West,4.6,-,N/A,,Clear,260,2012-10-11 16:53:00
10:53 AM,62.1,35.1,37,29.96,10.0,NW,3.5,-,N/A,,Clear,310,2012-10-11 17:53:00
11:53 AM,66.0,36.0,33,29.94,10.0,Calm,Calm,-,N/A,,Clear,0,2012-10-11 18:53:00
12:53 PM,71.1,37.0,29,29.91,10.0,Calm,Calm,-,N/A,,Clear,0,2012-10-11 19:53:00
1:53 PM,73.0,36.0,26,29.88,10.0,South,3.5,-,N/A,,Clear,190,2012-10-11 20:53:00
2:53 PM,75.2,37.4,25,29.86,10.0,SSE,5.8,-,N/A,,Clear,150,2012-10-11 21:53:00
3:53 PM,75.0,37.9,26,29.84,10.0,South,5.8,-,N/A,,Clear,170,2012-10-11 22:53:00
4:53 PM,73.0,39.0,29,29.82,10.0,SSE,3.5,-,N/A,,Clear,160,2012-10-11 23:53:00
5:53 PM,69.1,39.0,33,29.80,10.0,SSW,4.6,-,N/A,,Clear,210,2012-10-12 00:53:00
6:53 PM,59.0,39.0,48,29.80,10.0,NW,3.5,-,N/A,,Clear,310,2012-10-12 01:53:00
7:53 PM,51.1,37.9,61,29.81,9.0,WSW,3.5,-,N/A,,Clear,250,2012-10-12 02:53:00
8:53 PM,48.9,37.9,66,29.81,10.0,West,4.6,-,N/A,,Clear,270,2012-10-12 03:53:00
9:53 PM,46.9,36.0,66,29.80,10.0,WNW,4.6,-,N/A,,Clear,300,2012-10-12 04:53:00
10:53 PM,43.0,36.0,76,29.80,10.0,WNW,6.9,-,N/A,,Clear,290,2012-10-12 05:53:00
11:53 PM,39.9,33.1,77,29.79,10.0,WNW,4.6,-,N/A,,Clear,290,2012-10-12 06:53:00